[[{"header":{"parameterUnit":"m.s-1","parameterCategory":2,"la1":30.2991,"la2":30.254,"lo1":-89.0895,"lo2":-89.0444,"dx":0.0017,"dy":0.0017,"nx":28,"ny":28,"refTime":"2023-01-12T15:00:00:Z","depth":"0","parameterNumber":2,"parameterNumberName":"U-component_of_CURRENTS"},"data":[0,0,0,0,0,0,0,0,0,0,0,0,0,0,0,0,0,0,0,0,0,0,0,0,0,0,0,0,0,0,0,0,0,0,0,0,0,0,0,0,0,0,0,0,0,0,0,0,0,0,0,0,0,0,0,0,0,0,0.3583,0.3584,0,0.366,0.3661,0.3662,0.3656,0.3655,0.3654,0.3653,0.3635,0.3636,0.3637,0,0,0,0,0,0,0,0,0,0,0,0,0,0.3528,0.3529,0.3583,0.3584,0.3585,0.366,0.3661,0.3662,0.3657,0.3655,0.3654,0.3652,0.3635,0.3636,0.3637,0,0,0,0,0,0,0,0,0,0,0,0,0,0.3574,0.3529,0.3583,0.359,0.3591,0.366,0.3661,0.3663,0.3657,0.3655,0.3653,0.3651,0.3635,0.3636,0.3637,0.3681,0,0,0.364,0.364,0,0,0,0,0,0,0,0,0.3571,0.3576,0.3588,0.359,0.3591,0.3646,0.3636,0.3664,0.3657,0.3633,0.3653,0.3651,0.3631,0.3632,0.3654,0.368,0.3679,0.364,0.3641,0.3641,0.3642,0,0,0,0,0,0,0,0.3568,0.3573,0.3614,0.3589,0.3591,0.3623,0.3627,0.3642,0.364,0.3635,0.3635,0.3642,0.3631,0.3653,0.3653,0.3679,0.364,0.3641,0.3642,0.3642,0.3711,0.3712,0,0,0,0,0,0,0.3554,0.357,0.3612,0.3617,0.3575,0.3625,0.3629,0.3631,0.3642,0.3643,0.3644,0.3642,0.3652,0.3652,0.3652,0.3674,0.3641,0.3642,0.3643,0.371,0.3711,0.3713,0,0,0,0,0,0,0.3552,0.3556,0.3609,0.3595,0.3603,0.3627,0.363,0.3634,0.3652,0.365,0.3648,0.3657,0.365,0.365,0.3662,0.3674,0.3643,0.3644,0.3708,0.371,0.3712,0.3738,0,0,0,0,0,0,0.355,0.3555,0.3567,0.3593,0.3603,0.3662,0.3632,0.3636,0.3659,0.3657,0.3661,0.3658,0.3649,0.366,0.3663,0.3675,0.3644,0.3707,0.3709,0.3711,0.3735,0.374,0.3744,0,0,0,0,0,0.3548,0.3566,0.3567,0.3573,0.3613,0.3663,0.3673,0.3684,0.3662,0.369,0.3675,0.3658,0.3676,0.3663,0.3665,0.3678,0.3706,0.3709,0.3711,0.3733,0.3739,0.3744,0,0,0,0,0,0,0.3547,0.3568,0.3569,0.3592,0.3631,0.3662,0.369,0.3691,0.3706,0.3691,0.3676,0.3674,0.3698,0.3687,0.3672,0.3706,0.3688,0.3691,0.3704,0.3709,0.3714,0.3739,0.3645,0,0,0,0,0,0.3554,0.357,0.3602,0.3623,0.3642,0.3666,0.369,0.3695,0.3706,0.3712,0.3708,0.3703,0.3716,0.3708,0.3728,0.374,0.3778,0.375,0.3755,0.3758,0.3782,0.384,0.3852,0.3721,0.3721,0.3721,0,0,0.3558,0.3573,0.3582,0.3625,0.3651,0.3681,0.3676,0.3712,0.3723,0.3707,0.3719,0.3731,0.373,0.375,0.3757,0.3734,0.3821,0.3762,0.3765,0.3787,0.3844,0.3857,0.3868,0.3723,0.3723,0.3723,0,0,0.358,0.3591,0.3618,0.3648,0.3688,0.3702,0.3711,0.3744,0.3749,0.3772,0.3761,0.3786,0.3789,0.38,0.3801,0.3846,0.3858,0.3836,0.386,0.3914,0.3926,0.3936,0.4023,0.4041,0.3818,0.3818,0.3818,0,0.3589,0.3607,0.3638,0.3671,0.3678,0.3706,0.3723,0.3752,0.3779,0.3777,0.3775,0.3809,0.3822,0.3839,0.3863,0.3858,0.3896,0.3833,0.3921,0.3932,0.3942,0.4028,0.4047,0.382,0.382,0.382,0.3819,0,0.3625,0.3642,0.3661,0.3693,0.3718,0.3738,0.3766,0.3787,0.3786,0.3802,0.3832,0.3864,0.3875,0.3888,0.3895,0.396,0.3969,0.3935,0.3906,0.3957,0.4044,0.4064,0.3822,0.3822,0.3821,0.3821,0,0,0.3629,0.3673,0.3679,0.3683,0.3715,0.3737,0.3756,0.3779,0.3785,0.3827,0.3837,0.3899,0.3917,0.3924,0.3934,0.3993,0.4124,0.3998,0.4,0.4085,0.4273,0.4123,0.4131,0.4092,0.4095,0.4097,0.4313,0,0.364,0.3679,0.3692,0.3713,0.3725,0.3736,0.3753,0.3778,0.3794,0.3824,0.3865,0.3894,0.3923,0.3933,0.4003,0.4098,0.4174,0.4071,0.4212,0.4218,0.4077,0.4147,0.3917,0.4074,0.4332,0.4335,0.4338,0,0.3657,0.3676,0.3688,0.3698,0.3705,0.3717,0.3719,0.3743,0.379,0.3806,0.3843,0.3873,0.398,0.3985,0.4188,0.4116,0.4213,0.4287,0.4295,0.4162,0.4103,0.4061,0.41,0.3997,0.4368,0.4366,0.4364,0,0.3627,0.3662,0.3656,0.3662,0.3694,0.3687,0.3698,0.3729,0.3736,0.3794,0.3807,0.3913,0.3966,0.411,0.4249,0.4237,0.4463,0.4452,0.4415,0.4407,0.4244,0.4214,0.4195,0.4602,0.4601,0.46,0.46,0,0.3618,0.3618,0.3642,0.3646,0.3638,0.3666,0.3656,0.3688,0.3719,0.3726,0.3798,0.3823,0.4,0.4116,0.4267,0.4393,0.4475,0.4454,0.445,0.4245,0.4214,0.4139,0.4119,0.4609,0.4607,0.4605,0.4604,0,0.3591,0.3609,0.3604,0.3623,0.3624,0.3619,0.3619,0.3613,0.3663,0.3674,0.3688,0.3792,0.3946,0.41,0.4336,0.4382,0.4403,0.4547,0.4303,0.4263,0.4103,0.4092,0.398,0.3874,0.458,0.4578,0.4575,0,0.3583,0.3576,0.3576,0.356,0.3562,0.3555,0.3538,0.3577,0.3567,0.3642,0.3643,0.3767,0.3825,0.409,0.4206,0.4406,0.4316,0.4272,0.4197,0.4076,0.4066,0.3934,0.3845,0.4033,0.4026,0.4021,0.4017,0,0.3555,0.3542,0.3537,0.3501,0.3476,0.3447,0.3432,0.342,0.3461,0.3482,0.3525,0.3578,0.3768,0.3819,0.3999,0.4099,0.4019,0.4168,0.4106,0.3688,0.3484,0.3382,0.3947,0.397,0.3975,0.3978,0.3981,0.3983,0.351,0.3493,0.3465,0.342,0.3386,0.3323,0.3257,0.3258,0.3241,0.3224,0.3369,0.3359,0.3468,0.3685,0.374,0.3654,0.3747,0.359,0.362,0.3522,0.3288,0.3747,0.3696,0.3699,0.3702,0.3704,0.3706,0,0.3437,0.3422,0.3381,0.3304,0.3212,0.3229,0.3161,0.3067,0.3003,0.3031,0.3057,0.3064,0.3081,0.3163,0.3202,0.3131,0.3019,0.3065,0.2856,0.2825,0.3298,0.3135,0.2875,0.2875,0.2876,0.2876,0.2876,0.2876,0.3402,0.3342,0.3314,0.3145,0.3079,0.2915,0.285,0.2751,0.2711,0.2608,0.2553,0.2614,0.2762,0.2829,0.2757,0.2714,0.2575,0.2421,0.2511,0.287,0.2921,0.297,0.2809,0.2486,0.2485,0.186,0.1856,0.1852]},{"header":{"parameterUnit":"m.s-1","parameterCategory":2,"la1":30.2991,"la2":30.254,"lo1":-89.0895,"lo2":-89.0444,"dx":0.0017,"dy":0.0017,"nx":28,"ny":28,"refTime":"2023-01-12T15:00:00:Z","depth":"0","parameterNumber":3,"parameterNumberName":"V-component_of_CURRENTS"},"data":[0,0,0,0,0,0,0,0,0,0,0,0,0,0,0,0,0,0,0,0,0,0,0,0,0,0,0,0,0,0,0,0,0,0,0,0,0,0,0,0,0,0,0,0,0,0,0,0,0,0,0,0,0,0,0,0,0,0,0.0388,0.0388,0,0.0387,0.0387,0.0388,0.0368,0.0367,0.0366,0.0365,0.0292,0.0291,0.029,0,0,0,0,0,0,0,0,0,0,0,0,0,0.0444,0.0443,0.0389,0.0388,0.0388,0.0387,0.0387,0.0388,0.0368,0.0367,0.0366,0.0365,0.0293,0.0292,0.029,0,0,0,0,0,0,0,0,0,0,0,0,0,0.0434,0.0443,0.0389,0.0374,0.0372,0.0387,0.0387,0.0388,0.0368,0.0367,0.0365,0.0364,0.0293,0.0292,0.029,0.031,0,0,0.0285,0.0285,0,0,0,0,0,0,0,0,0.0434,0.0432,0.0377,0.0375,0.0373,0.0372,0.038,0.0357,0.0369,0.0375,0.0365,0.0363,0.031,0.0307,0.0318,0.0306,0.0303,0.0285,0.0284,0.0284,0.0283,0,0,0,0,0,0,0,0.0435,0.0433,0.0393,0.0376,0.0374,0.0391,0.0388,0.0377,0.0353,0.0375,0.0372,0.0364,0.0309,0.032,0.0316,0.0302,0.0285,0.0284,0.0283,0.0282,0.0281,0.0282,0,0,0,0,0,0,0.0423,0.0433,0.0393,0.0393,0.0395,0.039,0.0387,0.0378,0.0355,0.0349,0.0365,0.0363,0.0323,0.0318,0.0313,0.0335,0.0284,0.0282,0.0281,0.0281,0.0282,0.0283,0,0,0,0,0,0,0.0424,0.0419,0.0393,0.0409,0.0406,0.039,0.038,0.0378,0.0378,0.0348,0.0341,0.0364,0.0322,0.0315,0.0309,0.0331,0.0282,0.028,0.0279,0.0281,0.0282,0.0377,0,0,0,0,0,0,0.0426,0.042,0.0422,0.0408,0.0404,0.0404,0.0381,0.0379,0.0373,0.037,0.0345,0.0338,0.032,0.0312,0.0308,0.0328,0.0279,0.0278,0.028,0.0282,0.0372,0.0381,0.0388,0,0,0,0,0,0.0428,0.0437,0.0422,0.0418,0.0403,0.0404,0.0406,0.0393,0.0374,0.0385,0.0369,0.0338,0.0319,0.0312,0.0306,0.0327,0.0278,0.028,0.0282,0.0369,0.0379,0.0388,0,0,0,0,0,0,0.0457,0.0434,0.0418,0.0417,0.0409,0.0399,0.0415,0.0393,0.0392,0.0386,0.0354,0.0347,0.0349,0.0324,0.0316,0.033,0.0291,0.0292,0.0359,0.0369,0.0377,0.0419,0.0278,0,0,0,0,0,0.0464,0.0466,0.0442,0.0442,0.0446,0.0429,0.0429,0.0412,0.0401,0.04,0.038,0.0361,0.0358,0.035,0.034,0.035,0.0345,0.0357,0.0365,0.0372,0.0402,0.0408,0.042,0.0289,0.0289,0.0289,0,0,0.0471,0.0462,0.0459,0.0449,0.0451,0.0469,0.0428,0.0429,0.0443,0.0391,0.0413,0.0387,0.0366,0.0382,0.038,0.0361,0.0407,0.0374,0.0381,0.0408,0.0412,0.0425,0.0436,0.0291,0.029,0.029,0,0,0.0497,0.0486,0.0501,0.0506,0.05,0.0496,0.0492,0.0479,0.0479,0.0488,0.0458,0.0457,0.0438,0.0444,0.044,0.0486,0.0449,0.046,0.054,0.0544,0.0556,0.0566,0.0584,0.0595,0.0466,0.0466,0.0466,0,0.0509,0.0519,0.0507,0.0533,0.0544,0.051,0.0535,0.0541,0.0522,0.0536,0.0504,0.0511,0.0483,0.0523,0.0538,0.051,0.0501,0.0506,0.0558,0.0567,0.0576,0.0592,0.0603,0.0471,0.047,0.047,0.0469,0,0.0544,0.0563,0.0581,0.0603,0.0617,0.0631,0.0631,0.0644,0.0631,0.063,0.0655,0.0632,0.0637,0.0623,0.0597,0.0644,0.0615,0.0567,0.0539,0.0595,0.0608,0.0617,0.0478,0.0476,0.0475,0.0473,0,0,0.0542,0.0595,0.06,0.0633,0.0653,0.0668,0.0711,0.0741,0.0776,0.0764,0.0813,0.0812,0.0788,0.0784,0.0745,0.0754,0.0804,0.0691,0.0689,0.0721,0.0823,0.0744,0.0747,0.0752,0.0754,0.0756,0.081,0,0.0574,0.0636,0.0651,0.0717,0.0756,0.0764,0.0813,0.0836,0.085,0.089,0.0883,0.0906,0.0852,0.0851,0.0857,0.0817,0.0832,0.0795,0.0754,0.0754,0.0686,0.0756,0.0707,0.0745,0.0819,0.082,0.0821,0,0.0599,0.0644,0.0711,0.0791,0.081,0.0844,0.0919,0.0954,0.1007,0.1019,0.1048,0.1028,0.1063,0.0987,0.0992,0.0964,0.0912,0.0878,0.0877,0.0784,0.0693,0.0697,0.0759,0.0639,0.0836,0.0835,0.0834,0,0.0608,0.0686,0.0744,0.0769,0.0851,0.0891,0.093,0.0992,0.1041,0.11,0.1138,0.1159,0.1176,0.1133,0.1061,0.1027,0.105,0.0986,0.0879,0.0873,0.0816,0.0801,0.077,0.0992,0.0992,0.0992,0.0991,0,0.0639,0.0686,0.0755,0.0793,0.0873,0.0917,0.1004,0.1049,0.1123,0.1199,0.12,0.1265,0.1208,0.1202,0.112,0.1043,0.1097,0.0926,0.0889,0.0845,0.0833,0.071,0.065,0.0994,0.0993,0.0993,0.0992,0,0.0642,0.0686,0.0761,0.0851,0.0882,0.0937,0.1041,0.1107,0.1174,0.1273,0.1297,0.136,0.1363,0.129,0.1234,0.1121,0.0972,0.0993,0.0951,0.0907,0.0671,0.0617,0.0585,0.054,0.0904,0.0902,0.0901,0,0.0655,0.0691,0.0787,0.0837,0.088,0.0965,0.103,0.1118,0.1197,0.1338,0.1395,0.1437,0.1489,0.1391,0.1201,0.1061,0.0946,0.0886,0.0805,0.0681,0.0595,0.0571,0.0534,0.078,0.0778,0.0776,0.0774,0,0.0678,0.0698,0.0756,0.0853,0.093,0.1023,0.1125,0.1199,0.1317,0.1428,0.1579,0.1638,0.1533,0.1395,0.116,0.1029,0.0788,0.0841,0.0731,0.0524,0.0482,0.0411,0.073,0.0759,0.076,0.0761,0.0762,0.0763,0.0676,0.0717,0.0787,0.0881,0.0969,0.1088,0.1181,0.1307,0.1463,0.1662,0.1705,0.1805,0.155,0.1245,0.1044,0.0622,0.068,0.049,0.0451,0.045,0.0361,0.0645,0.0602,0.0603,0.0604,0.0604,0.0604,0,0.0688,0.0741,0.0819,0.0942,0.1043,0.1093,0.1254,0.1371,0.1574,0.1738,0.1892,0.179,0.1451,0.1088,0.0544,0.0283,0.0217,0.015,0.0114,0.0106,0.0374,0.0317,0.0187,0.0187,0.0187,0.0187,0.0187,0.0187,0.0701,0.0771,0.0821,0.0988,0.108,0.1234,0.1339,0.152,0.166,0.1878,0.1931,0.1978,0.1717,0.0749,0.0108,-0.0048,-0.0168,-0.0213,-0.0241,-0.0077,-0.0048,-0.002,-0.0088,-0.0301,-0.0301,-0.0492,-0.0494,-0.0496]}],[{"header":{"parameterUnit":"m.s-1","parameterCategory":2,"la1":30.2991,"la2":30.254,"lo1":-89.0895,"lo2":-89.0444,"dx":0.0017,"dy":0.0017,"nx":28,"ny":28,"refTime":"2023-01-12T15:00:00:Z","depth":"2","parameterNumber":2,"parameterNumberName":"U-component_of_CURRENTS"},"data":[0,0,0,0,0,0,0,0,0,0,0,0,0,0,0,0,0,0,0,0,0,0,0,0,0,0,0,0,0,0,0,0,0,0,0,0,0,0,0,0,0,0,0,0,0,0,0,0,0,0,0,0,0,0,0,0,0,0,0.2571,0.2572,0,0.2605,0.2604,0.2604,0.2654,0.2656,0.2658,0.266,0.2824,0.2827,0.2829,0,0,0,0,0,0,0,0,0,0,0,0,0,0.2532,0.2532,0.2571,0.2572,0.2573,0.2605,0.2604,0.2604,0.2654,0.2656,0.2658,0.2661,0.2823,0.2826,0.283,0,0,0,0,0,0,0,0,0,0,0,0,0,0.2545,0.2531,0.257,0.261,0.2615,0.2605,0.2604,0.2604,0.2653,0.2656,0.2659,0.2662,0.2822,0.2826,0.283,0.2799,0,0,0.2842,0.2844,0,0,0,0,0,0,0,0,0.2545,0.2545,0.2603,0.2607,0.2613,0.2638,0.2652,0.2679,0.2653,0.2627,0.266,0.2663,0.2779,0.2786,0.277,0.2806,0.2813,0.2842,0.2845,0.2847,0.2848,0,0,0,0,0,0,0,0.2544,0.2544,0.2573,0.2604,0.261,0.2621,0.2625,0.2655,0.2681,0.263,0.2636,0.2656,0.2781,0.2765,0.2774,0.2816,0.2842,0.2846,0.2848,0.285,0.3036,0.3039,0,0,0,0,0,0,0.2558,0.2543,0.2573,0.2575,0.2597,0.2621,0.2625,0.2618,0.2678,0.2692,0.2654,0.2659,0.2757,0.277,0.2781,0.2933,0.2847,0.285,0.2853,0.3034,0.3037,0.304,0,0,0,0,0,0,0.2557,0.2559,0.2571,0.2571,0.2574,0.262,0.2611,0.2618,0.2645,0.2697,0.2712,0.2682,0.276,0.2775,0.2852,0.2934,0.2852,0.2856,0.3031,0.3035,0.3038,0.312,0,0,0,0,0,0,0.2555,0.2557,0.2558,0.257,0.2575,0.2549,0.261,0.2617,0.2656,0.2663,0.2725,0.274,0.2763,0.2846,0.2856,0.2938,0.2859,0.3028,0.3033,0.3037,0.3114,0.3126,0.3137,0,0,0,0,0,0.2553,0.2523,0.2557,0.2562,0.2573,0.2548,0.2547,0.2584,0.2655,0.2627,0.272,0.274,0.2886,0.285,0.2862,0.2947,0.3025,0.3031,0.3037,0.3109,0.3124,0.3137,0,0,0,0,0,0,0.2485,0.2527,0.2564,0.2546,0.255,0.256,0.255,0.2601,0.2646,0.2689,0.2754,0.2772,0.2891,0.2888,0.2849,0.3015,0.2966,0.2975,0.3018,0.3032,0.3043,0.2974,0.2862,0,0,0,0,0,0.248,0.2493,0.2509,0.2504,0.2497,0.2538,0.2545,0.2581,0.2627,0.2649,0.2758,0.2847,0.2911,0.2946,0.3011,0.3069,0.3048,0.3137,0.3148,0.3158,0.311,0.3183,0.3195,0.3059,0.3059,0.3059,0,0,0.2471,0.2489,0.2505,0.2497,0.2505,0.2473,0.2544,0.2554,0.2591,0.2664,0.2797,0.2903,0.294,0.3038,0.3088,0.3049,0.3185,0.3165,0.3173,0.3118,0.319,0.3203,0.3214,0.3063,0.3062,0.3061,0,0,0.244,0.245,0.2449,0.244,0.2465,0.2454,0.2468,0.2542,0.2623,0.2711,0.2833,0.2952,0.3059,0.312,0.3142,0.3234,0.326,0.3318,0.33,0.3374,0.3385,0.3394,0.3374,0.338,0.3303,0.3303,0.3303,0,0.2453,0.2424,0.2438,0.2417,0.2422,0.2447,0.2431,0.2471,0.2606,0.2726,0.2754,0.3019,0.3062,0.3175,0.3221,0.3255,0.3294,0.3248,0.3387,0.3396,0.3404,0.338,0.3387,0.3308,0.3307,0.3307,0.3306,0,0.2396,0.2392,0.2372,0.2359,0.2344,0.2329,0.2375,0.2462,0.2579,0.2695,0.2916,0.2999,0.3149,0.3214,0.3225,0.3363,0.3371,0.3413,0.3346,0.3422,0.3393,0.3398,0.3314,0.3313,0.3311,0.331,0,0,0.2405,0.236,0.2368,0.2347,0.233,0.2299,0.2363,0.2447,0.2527,0.2726,0.2877,0.3027,0.3178,0.3209,0.3319,0.3361,0.3444,0.342,0.3422,0.3382,0.3584,0.3383,0.3368,0.3569,0.3571,0.3572,0.3535,0,0.2379,0.2329,0.233,0.2272,0.2215,0.2274,0.2312,0.2422,0.2537,0.2698,0.2884,0.3054,0.3145,0.3252,0.3323,0.3426,0.3466,0.3445,0.3526,0.3524,0.3326,0.337,0.3161,0.3096,0.354,0.3541,0.3541,0,0.2333,0.2285,0.226,0.2223,0.2215,0.2215,0.228,0.2329,0.2539,0.2675,0.2892,0.3057,0.3217,0.3255,0.3423,0.3441,0.351,0.355,0.3552,0.3322,0.3332,0.3096,0.3088,0.3549,0.3548,0.3548,0.3547,0,0.2285,0.2243,0.2227,0.2213,0.2172,0.2243,0.225,0.2391,0.2478,0.2706,0.2803,0.3039,0.3161,0.3296,0.3412,0.3465,0.3523,0.3598,0.3465,0.3449,0.3246,0.3207,0.3688,0.3688,0.3688,0.3688,0.3688,0,0.2224,0.2185,0.222,0.2188,0.2191,0.2203,0.227,0.2345,0.2481,0.2602,0.2826,0.2946,0.3196,0.3295,0.3387,0.3398,0.3519,0.3422,0.343,0.3265,0.3231,0.3606,0.3597,0.3687,0.3687,0.3687,0.3688,0,0.2138,0.2166,0.2136,0.2156,0.2171,0.219,0.2265,0.2305,0.2439,0.258,0.2681,0.2912,0.3055,0.3187,0.3346,0.333,0.3366,0.3351,0.3077,0.3051,0.3245,0.3242,0.3186,0.3178,0.3172,0.3167,0.3163,0,0.2117,0.2094,0.2133,0.2164,0.219,0.2223,0.2253,0.2327,0.2378,0.257,0.2638,0.2825,0.2961,0.3012,0.302,0.3039,0.3236,0.2833,0.2863,0.3181,0.3197,0.3203,0.3207,0.2636,0.2628,0.2621,0.2616,0,0.2038,0.2089,0.2054,0.2119,0.2178,0.2197,0.2252,0.2268,0.238,0.2495,0.2651,0.2758,0.2794,0.2721,0.2665,0.2671,0.2798,0.2688,0.3137,0.2773,0.2654,0.2672,0.2697,0.2555,0.2561,0.2566,0.2569,0.2571,0.2028,0.2009,0.2024,0.2077,0.214,0.2184,0.2213,0.2264,0.2335,0.2426,0.2546,0.2579,0.2531,0.2347,0.2278,0.2215,0.2413,0.2362,0.2388,0.2421,0.234,0.2216,0.2015,0.2017,0.202,0.2022,0.2024,0,0.1997,0.1948,0.1979,0.2018,0.2072,0.2171,0.221,0.2213,0.2299,0.2285,0.2377,0.2132,0.2017,0.2002,0.1797,0.1731,0.1783,0.1702,0.1797,0.1855,0.1907,0.1808,0.1337,0.1335,0.1334,0.1332,0,0,0.1924,0.1899,0.1889,0.1947,0.2044,0.2109,0.2177,0.2172,0.2134,0.2029,0.1956,0.1955,0.1945,0.1634,0.1556,0.144,0.1658,0.1387,0.1934,0.2107,0.2158,0.227,0.2177,0,0,0,0,0]},{"header":{"parameterUnit":"m.s-1","parameterCategory":2,"la1":30.2991,"la2":30.254,"lo1":-89.0895,"lo2":-89.0444,"dx":0.0017,"dy":0.0017,"nx":28,"ny":28,"refTime":"2023-01-12T15:00:00:Z","depth":"2","parameterNumber":3,"parameterNumberName":"V-component_of_CURRENTS"},"data":[0,0,0,0,0,0,0,0,0,0,0,0,0,0,0,0,0,0,0,0,0,0,0,0,0,0,0,0,0,0,0,0,0,0,0,0,0,0,0,0,0,0,0,0,0,0,0,0,0,0,0,0,0,0,0,0,0,0,-0.0149,-0.015,0,-0.0291,-0.0293,-0.0295,-0.032,-0.0318,-0.0316,-0.0315,-0.0317,-0.0318,-0.032,0,0,0,0,0,0,0,0,0,0,0,0,0,-0.0121,-0.0121,-0.0149,-0.015,-0.0151,-0.0291,-0.0293,-0.0295,-0.032,-0.0318,-0.0316,-0.0314,-0.0316,-0.0318,-0.032,0,0,0,0,0,0,0,0,0,0,0,0,0,-0.019,-0.0121,-0.0148,-0.0176,-0.018,-0.029,-0.0293,-0.0296,-0.032,-0.0318,-0.0315,-0.0313,-0.0315,-0.0318,-0.032,-0.0386,0,0,-0.0328,-0.0329,0,0,0,0,0,0,0,0,-0.0186,-0.0191,-0.0171,-0.0175,-0.0179,-0.028,-0.0284,-0.0317,-0.0321,-0.0273,-0.0315,-0.0312,-0.029,-0.0294,-0.0336,-0.0386,-0.0386,-0.0328,-0.0329,-0.033,-0.0331,0,0,0,0,0,0,0,-0.0181,-0.0187,-0.021,-0.0172,-0.0177,-0.0258,-0.0263,-0.0293,-0.0295,-0.0277,-0.0278,-0.0286,-0.0291,-0.0334,-0.0336,-0.0386,-0.0328,-0.033,-0.0331,-0.0332,-0.0359,-0.0359,0,0,0,0,0,0,-0.0143,-0.0181,-0.0206,-0.0214,-0.017,-0.0259,-0.0266,-0.0255,-0.0298,-0.0302,-0.0288,-0.0286,-0.0331,-0.0333,-0.0336,-0.0264,-0.033,-0.0333,-0.0334,-0.036,-0.0359,-0.0359,0,0,0,0,0,0,-0.0142,-0.0144,-0.02,-0.0198,-0.021,-0.026,-0.0249,-0.0259,-0.0288,-0.0307,-0.0308,-0.0304,-0.0329,-0.0332,-0.034,-0.0269,-0.0334,-0.0336,-0.0361,-0.036,-0.0359,-0.0217,0,0,0,0,0,0,-0.014,-0.0142,-0.0141,-0.0194,-0.0208,-0.0267,-0.0251,-0.0263,-0.0295,-0.0294,-0.0322,-0.0321,-0.0328,-0.0337,-0.0343,-0.0274,-0.0338,-0.0362,-0.0361,-0.0359,-0.0223,-0.0211,-0.0201,0,0,0,0,0,-0.0139,-0.0143,-0.014,-0.0144,-0.0198,-0.0268,-0.0285,-0.0316,-0.0297,-0.0329,-0.0322,-0.0319,-0.033,-0.0339,-0.0346,-0.0276,-0.0363,-0.0361,-0.0359,-0.0227,-0.0213,-0.0202,0,0,0,0,0,0,-0.0165,-0.0148,-0.0144,-0.0152,-0.0203,-0.0269,-0.031,-0.0316,-0.0346,-0.0333,-0.0332,-0.0333,-0.0298,-0.0335,-0.0344,-0.0284,-0.0338,-0.0338,-0.0235,-0.0222,-0.0212,-0.0246,-0.034,0,0,0,0,0,-0.016,-0.0129,-0.0169,-0.0177,-0.0207,-0.0256,-0.0291,-0.0307,-0.0333,-0.0345,-0.0327,-0.0321,-0.0306,-0.0302,-0.0306,-0.0302,-0.0343,-0.0258,-0.0248,-0.0238,-0.0274,-0.0259,-0.0249,-0.0353,-0.0353,-0.0353,0,0,-0.0168,-0.0159,-0.0143,-0.0177,-0.0225,-0.026,-0.0273,-0.0326,-0.032,-0.0338,-0.0307,-0.0286,-0.0299,-0.0264,-0.0252,-0.028,-0.0229,-0.0236,-0.0227,-0.0269,-0.0256,-0.0245,-0.0236,-0.0352,-0.0352,-0.0352,0,0,-0.0173,-0.0174,-0.0157,-0.0197,-0.0247,-0.0277,-0.0283,-0.0321,-0.0311,-0.032,-0.0274,-0.0242,-0.0245,-0.0212,-0.0207,-0.0164,-0.0169,-0.0122,-0.0095,-0.0077,-0.0068,-0.0061,-0.0089,-0.0085,-0.0119,-0.0118,-0.0118,0,-0.0177,-0.0163,-0.018,-0.02,-0.0222,-0.0272,-0.0291,-0.031,-0.0319,-0.0273,-0.03,-0.0221,-0.0238,-0.0151,-0.0128,-0.0137,-0.0133,-0.0128,-0.006,-0.0054,-0.0049,-0.008,-0.0078,-0.0111,-0.0112,-0.0113,-0.0113,0,-0.0189,-0.018,-0.0197,-0.0197,-0.0237,-0.0272,-0.0293,-0.0276,-0.0264,-0.0242,-0.0158,-0.0176,-0.0118,-0.0094,-0.0116,-0.0031,-0.004,-0.0037,-0.0084,-0.0029,-0.0066,-0.0066,-0.0101,-0.0104,-0.0106,-0.0108,0,0,-0.0155,-0.018,-0.0177,-0.0175,-0.023,-0.0256,-0.0239,-0.0216,-0.0157,-0.0151,-0.0059,-0.0049,-0.0005,-0.0003,0.0036,0.0025,0.0055,0.0015,0.0013,-0.0001,0.0091,0.0055,0.005,0.0114,0.0115,0.0115,0.0056,0,-0.0148,-0.0147,-0.0163,-0.0169,-0.0188,-0.0206,-0.0181,-0.0155,-0.0126,-0.0042,-0.0019,0.0063,0.0024,0.0086,0.0076,0.007,0.006,0.0068,0.0024,0.002,-0.0005,0.005,0.0042,-0.0013,0.0055,0.0054,0.0054,0,-0.0144,-0.0138,-0.0137,-0.012,-0.0129,-0.0134,-0.0075,-0.0058,0.0033,0.0071,0.0156,0.0202,0.024,0.0178,0.0152,0.0183,0.0133,0.0088,0.0086,-0.0011,-0.0016,-0.0062,-0.0017,0.0053,0.0053,0.0053,0.0053,0,-0.0109,-0.0105,-0.0086,-0.0098,-0.0107,-0.0077,-0.0065,-0.0002,0.006,0.0176,0.0246,0.0304,0.0346,0.0291,0.0201,0.0207,0.0132,0.0132,0.0043,0.0039,-0.0023,-0.0033,0.0092,0.0092,0.0092,0.0092,0.0092,0,-0.0089,-0.0074,-0.0063,-0.0071,-0.0018,-0.0042,0.0039,0.0077,0.0163,0.029,0.0329,0.0446,0.0381,0.0362,0.0246,0.0134,0.0174,0.0031,0.0028,0.0026,0.0021,0.0025,0.0018,0.009,0.009,0.0091,0.0091,0,-0.0073,-0.0067,-0.005,-0.0032,-0.0013,0.0019,0.0092,0.017,0.0232,0.0396,0.0455,0.0554,0.0546,0.043,0.033,0.0203,0.0083,0.0036,0.0009,0.0003,-0.0039,-0.0039,-0.0069,-0.0071,-0.0072,-0.0073,-0.0074,0,-0.007,-0.0064,-0.0021,0.0019,0.0026,0.0086,0.0147,0.0206,0.031,0.0495,0.0599,0.0657,0.0757,0.0545,0.0317,0.0094,0.0092,-0.0061,-0.0077,-0.0053,-0.0052,-0.0049,-0.0047,-0.0104,-0.0105,-0.0106,-0.0107,0,-0.0077,-0.0059,-0.0027,0.006,0.0125,0.0213,0.0315,0.0413,0.0539,0.07,0.0914,0.1,0.0821,0.0629,0.0292,0.014,-0.0036,-0.0087,-0.0023,-0.006,-0.0089,-0.0088,-0.0083,-0.0115,-0.0114,-0.0113,-0.0113,-0.0113,-0.0067,-0.0027,0.0034,0.0123,0.0215,0.0358,0.049,0.0645,0.0854,0.1104,0.1122,0.1207,0.0905,0.0489,0.0238,-0.0057,-0.0059,-0.0174,-0.0169,-0.0164,-0.0155,-0.0184,-0.0229,-0.0229,-0.0229,-0.0229,-0.0229,0,-0.0049,0.0007,0.0098,0.0231,0.0365,0.0408,0.0626,0.08,0.1115,0.1226,0.1391,0.1118,0.0867,0.054,0.0087,-0.0174,-0.0177,-0.0232,-0.0191,-0.0184,-0.0178,-0.0167,-0.0246,-0.0246,-0.0246,-0.0246,0,0,-0.0028,0.0051,0.0115,0.0339,0.0466,0.0691,0.0857,0.1128,0.1261,0.143,0.1417,0.1305,0.0891,0.0563,0.0213,-0.0005,-0.0018,-0.0041,-0.0015,0.0078,0.009,-0.0153,-0.0131,0,0,0,0,0]}],[{"header":{"parameterUnit":"m.s-1","parameterCategory":2,"la1":30.2991,"la2":30.254,"lo1":-89.0895,"lo2":-89.0444,"dx":0.0017,"dy":0.0017,"nx":28,"ny":28,"refTime":"2023-01-12T15:00:00:Z","depth":"4","parameterNumber":2,"parameterNumberName":"U-component_of_CURRENTS"},"data":[0,0,0,0,0,0,0,0,0,0,0,0,0,0,0,0,0,0,0,0,0,0,0,0,0,0,0,0,0,0,0,0,0,0,0,0,0,0,0,0,0,0,0,0,0,0,0,0,0,0,0,0,0,0,0,0,0,0,0.0193,0.0194,0,0.0258,0.0259,0.026,0.0344,0.0345,0.0347,0.0348,0.0451,0.0453,0.0454,0,0,0,0,0,0,0,0,0,0,0,0,0,0.0135,0.0135,0.0193,0.0194,0.0194,0.0258,0.0259,0.026,0.0344,0.0346,0.0347,0.0349,0.0451,0.0453,0.0454,0,0,0,0,0,0,0,0,0,0,0,0,0,0.0176,0.0136,0.0193,0.0244,0.025,0.0258,0.0259,0.026,0.0343,0.0346,0.0348,0.035,0.045,0.0452,0.0455,0.0426,0,0,0.0461,0.0462,0,0,0,0,0,0,0,0,0.0173,0.0178,0.0236,0.0241,0.0247,0.0295,0.0276,0.0318,0.0343,0.0308,0.0348,0.0351,0.0401,0.0408,0.0414,0.0431,0.0435,0.0461,0.0463,0.0464,0.0464,0,0,0,0,0,0,0,0.017,0.0175,0.0218,0.0236,0.0243,0.0262,0.027,0.0284,0.0342,0.0311,0.0317,0.0324,0.0405,0.0412,0.0418,0.0437,0.0461,0.0463,0.0465,0.0465,0.0556,0.0557,0,0,0,0,0,0,0.0161,0.0173,0.0216,0.022,0.0215,0.0261,0.0271,0.0277,0.0342,0.0353,0.0322,0.0328,0.0407,0.0415,0.0422,0.0509,0.0464,0.0466,0.0467,0.0555,0.0557,0.0558,0,0,0,0,0,0,0.0159,0.0164,0.0214,0.0198,0.0206,0.026,0.0267,0.0278,0.0325,0.035,0.0363,0.0364,0.0409,0.0419,0.0475,0.051,0.0467,0.0469,0.0554,0.0556,0.0557,0.0609,0,0,0,0,0,0,0.0157,0.0163,0.0172,0.0197,0.0207,0.0239,0.0266,0.0277,0.0324,0.0333,0.0389,0.0399,0.0412,0.0472,0.0477,0.0512,0.047,0.0553,0.0555,0.0557,0.0606,0.0613,0.0618,0,0,0,0,0,0.0155,0.016,0.0172,0.0178,0.0215,0.024,0.0247,0.0292,0.0324,0.0343,0.0393,0.0399,0.0489,0.0475,0.0481,0.0517,0.0552,0.0554,0.0557,0.0604,0.0611,0.0618,0,0,0,0,0,0,0.0144,0.0169,0.0183,0.0198,0.0225,0.0255,0.0274,0.0308,0.0359,0.0381,0.0412,0.0425,0.0483,0.0489,0.0473,0.0548,0.0521,0.0525,0.0554,0.0562,0.0568,0.0583,0.0472,0,0,0,0,0,0.0141,0.015,0.018,0.0192,0.0206,0.0246,0.0266,0.03,0.0343,0.037,0.0419,0.0461,0.0488,0.052,0.0541,0.0584,0.0573,0.061,0.0616,0.0621,0.0637,0.0646,0.0655,0.0566,0.0566,0.0566,0,0,0.0137,0.0154,0.0159,0.019,0.0214,0.0249,0.0265,0.0305,0.036,0.037,0.0468,0.0482,0.0501,0.0552,0.0579,0.0572,0.0637,0.0624,0.0628,0.0642,0.065,0.0658,0.0666,0.0568,0.0567,0.0567,0,0,0.0136,0.0152,0.0164,0.0193,0.0236,0.0263,0.0284,0.0341,0.0395,0.0472,0.0488,0.0531,0.0595,0.0612,0.0626,0.0675,0.066,0.0682,0.0738,0.0747,0.0754,0.076,0.0741,0.0745,0.0695,0.0695,0.0695,0,0.0136,0.0157,0.0173,0.0203,0.0239,0.0277,0.0319,0.0368,0.0449,0.05,0.0519,0.0613,0.0625,0.0675,0.0695,0.0691,0.0683,0.0709,0.0754,0.0761,0.0766,0.0745,0.0749,0.0698,0.0697,0.0697,0.0697,0,0.0152,0.0179,0.0191,0.0245,0.0283,0.0321,0.0389,0.0451,0.0524,0.0583,0.0674,0.0692,0.0755,0.0752,0.0745,0.079,0.0765,0.0752,0.0736,0.0779,0.0753,0.0756,0.0702,0.0701,0.07,0.0699,0,0,0.0132,0.019,0.0198,0.0238,0.0315,0.035,0.044,0.0532,0.061,0.0692,0.0793,0.0829,0.0855,0.087,0.0858,0.0862,0.088,0.0833,0.0832,0.0813,0.0884,0.0831,0.0829,0.0878,0.0879,0.088,0.0843,0,0.0147,0.0201,0.0236,0.0312,0.0354,0.0424,0.0508,0.0602,0.0692,0.0798,0.084,0.0935,0.0896,0.094,0.0934,0.0901,0.0895,0.089,0.0847,0.0846,0.0793,0.0834,0.0884,0.0845,0.0846,0.0846,0.0847,0,0.016,0.0199,0.0265,0.0365,0.0393,0.0459,0.0599,0.0691,0.0829,0.091,0.0998,0.1037,0.1082,0.1042,0.1014,0.1016,0.0962,0.0919,0.0916,0.0857,0.08,0.0798,0.0852,0.0852,0.0851,0.0851,0.0851,0,0.0144,0.0225,0.028,0.0314,0.0428,0.05,0.0596,0.0738,0.0833,0.1011,0.1086,0.1143,0.1197,0.1147,0.1058,0.1059,0.099,0.0983,0.0875,0.0869,0.0903,0.0896,0.0958,0.0958,0.0958,0.0958,0.0959,0,0.015,0.0194,0.0285,0.0319,0.0422,0.0527,0.0666,0.0778,0.0934,0.1028,0.1159,0.1174,0.1229,0.1185,0.1091,0.0983,0.102,0.0896,0.0869,0.0922,0.0918,0.0903,0.0897,0.0957,0.0957,0.0958,0.0958,0,0.0121,0.0171,0.0238,0.0361,0.0416,0.051,0.0706,0.0797,0.0971,0.1091,0.1161,0.124,0.1207,0.1188,0.1104,0.1035,0.093,0.0867,0.0909,0.0882,0.0799,0.0796,0.08,0.0798,0.0796,0.0795,0.0794,0,0.0111,0.0138,0.0254,0.0315,0.0382,0.0534,0.0632,0.0816,0.09,0.1052,0.1074,0.1135,0.1155,0.1006,0.0973,0.0874,0.0833,0.0815,0.0839,0.0816,0.0788,0.0788,0.0788,0.0791,0.0791,0.079,0.079,0,0.0088,0.0121,0.0172,0.029,0.0393,0.0502,0.0653,0.0695,0.0876,0.1009,0.1011,0.1018,0.0982,0.093,0.09,0.0783,0.0866,0.0798,0.0802,0.0825,0.0805,0.078,0.0781,0.0784,0.0785,0.0786,0.0786,0,0.0067,0.0087,0.0153,0.0259,0.0377,0.0453,0.0534,0.0626,0.0723,0.0901,0.0834,0.0871,0.0927,0.0868,0.0759,0.075,0.0747,0.0741,0.0747,0.0753,0.0756,0.0726,0.0669,0,0,0,0,0,0.0053,0.0064,0.0136,0.0233,0.0343,0.0406,0.0536,0.0606,0.0725,0.0726,0.0816,0.077,0.0748,0.0706,0.0686,0.0702,0.0722,0.0673,0.0711,0.0753,0.076,0.0768,0,0,0,0,0,0,0.0036,0.0079,0.0098,0.0188,0.0252,0.0353,0.042,0.0494,0.051,0.0633,0.0602,0.0729,0.0677,0.0749,0.0664,0.0667,0.068,0.0702,0.0701,0.075,0.0755,0.0761,0.0771,0,0,0,0,0]},{"header":{"parameterUnit":"m.s-1","parameterCategory":2,"la1":30.2991,"la2":30.254,"lo1":-89.0895,"lo2":-89.0444,"dx":0.0017,"dy":0.0017,"nx":28,"ny":28,"refTime":"2023-01-12T15:00:00:Z","depth":"4","parameterNumber":3,"parameterNumberName":"V-component_of_CURRENTS"},"data":[0,0,0,0,0,0,0,0,0,0,0,0,0,0,0,0,0,0,0,0,0,0,0,0,0,0,0,0,0,0,0,0,0,0,0,0,0,0,0,0,0,0,0,0,0,0,0,0,0,0,0,0,0,0,0,0,0,0,0.0399,0.0399,0,0.0383,0.0383,0.0383,0.036,0.0359,0.0359,0.0359,0.0209,0.0205,0.0201,0,0,0,0,0,0,0,0,0,0,0,0,0,0.0385,0.0385,0.0399,0.0399,0.0399,0.0384,0.0383,0.0383,0.036,0.0359,0.0359,0.0359,0.021,0.0206,0.0201,0,0,0,0,0,0,0,0,0,0,0,0,0,0.038,0.0385,0.0399,0.0388,0.0387,0.0384,0.0383,0.0382,0.036,0.0359,0.0359,0.0359,0.0212,0.0206,0.02,0.017,0,0,0.0183,0.018,0,0,0,0,0,0,0,0,0.038,0.038,0.039,0.0389,0.0388,0.0376,0.0323,0.0306,0.036,0.0367,0.0359,0.0359,0.0254,0.0245,0.0241,0.0163,0.0156,0.0182,0.0179,0.0176,0.0175,0,0,0,0,0,0,0,0.038,0.038,0.039,0.039,0.0389,0.0375,0.0374,0.032,0.0308,0.0366,0.0365,0.0368,0.0252,0.0246,0.0236,0.0154,0.0182,0.0177,0.0174,0.0171,0.0008,0.0007,0,0,0,0,0,0,0.0389,0.0381,0.0391,0.039,0.0386,0.0376,0.0375,0.0377,0.0311,0.0303,0.0368,0.0367,0.0256,0.0243,0.0231,0.0162,0.0176,0.0171,0.0168,0.0009,0.0008,0.0007,0,0,0,0,0,0,0.0389,0.039,0.0392,0.0387,0.0387,0.0377,0.038,0.0377,0.0378,0.0314,0.0303,0.0372,0.0256,0.0239,0.018,0.0157,0.0168,0.0163,0.001,0.0008,0.0007,0.0042,0,0,0,0,0,0,0.0389,0.039,0.0401,0.0388,0.0387,0.0389,0.038,0.0377,0.038,0.0379,0.0313,0.0299,0.0254,0.0189,0.0175,0.0149,0.0159,0.0011,0.0009,0.0008,0.0042,0.0042,0.0042,0,0,0,0,0,0.0388,0.0398,0.0401,0.0403,0.04,0.0389,0.0387,0.0377,0.0381,0.0377,0.0333,0.0302,0.0168,0.0184,0.0167,0.014,0.0012,0.001,0.0008,0.0042,0.0042,0.0042,0,0,0,0,0,0,0.0393,0.0397,0.04,0.041,0.0402,0.0386,0.0389,0.0385,0.0352,0.0352,0.0292,0.0274,0.0206,0.0174,0.0193,0.0087,0.0083,0.0078,0.0115,0.0115,0.0115,0.0128,0.0154,0,0,0,0,0,0.0403,0.0413,0.0407,0.0415,0.0416,0.0407,0.0405,0.04,0.037,0.0359,0.0314,0.0256,0.0185,0.0154,0.009,0.0042,0.0012,0.0012,0.0012,0.0013,0.0011,-0.0052,-0.0058,0.0,0.0,0.0,0,0,0.0408,0.0412,0.0418,0.0418,0.0415,0.0412,0.0404,0.0406,0.0403,0.0343,0.0319,0.0251,0.017,0.0105,0.0073,0.0077,-0.0017,0.001,0.0011,0.0009,-0.0055,-0.0061,-0.0066,-0.0001,-0.0001,-0.0001,0,0,0.0417,0.0427,0.0437,0.0433,0.0435,0.0426,0.043,0.0417,0.0413,0.0382,0.0323,0.0251,0.0172,0.0101,0.0054,0.002,-0.0021,-0.0004,0.0011,-0.0049,-0.0054,-0.0059,-0.0088,-0.0096,0.0004,0.0004,0.0004,0,0.0424,0.0434,0.0436,0.044,0.0437,0.0434,0.0433,0.043,0.0399,0.0378,0.0379,0.0228,0.0167,0.006,0.0046,0.0018,-0.0011,0.002,-0.0048,-0.0054,-0.0059,-0.0088,-0.0097,0.0006,0.0005,0.0005,0.0005,0,0.0435,0.0444,0.0448,0.0452,0.0447,0.0447,0.0441,0.0436,0.043,0.0407,0.0322,0.0239,0.0146,0.011,0.0067,-0.0019,-0.0025,-0.0045,-0.0042,-0.0063,-0.0092,-0.0101,0.0008,0.0007,0.0007,0.0006,0,0,0.0438,0.0453,0.0455,0.0454,0.0453,0.0445,0.0446,0.0422,0.0406,0.0372,0.0323,0.0209,0.0163,0.0107,0.0035,-0.0015,-0.0074,-0.004,-0.0044,-0.0057,-0.0189,-0.0158,-0.0166,-0.0107,-0.0109,-0.0111,-0.0186,0,0.0443,0.0455,0.0457,0.0455,0.0455,0.0447,0.044,0.042,0.0395,0.035,0.0272,0.0204,0.0165,0.0116,0.0051,-0.0066,-0.0102,-0.005,-0.0178,-0.0181,-0.0142,-0.0177,-0.0117,-0.0194,-0.0196,-0.0198,-0.0199,0,0.0448,0.0454,0.0461,0.045,0.0448,0.0453,0.0424,0.0422,0.0367,0.0347,0.0272,0.0206,0.01,0.0092,-0.008,-0.0047,-0.0107,-0.0171,-0.0175,-0.0167,-0.0169,-0.0177,-0.0217,-0.0216,-0.0215,-0.0213,-0.0212,0,0.0442,0.0449,0.0454,0.0454,0.0447,0.0452,0.0458,0.0422,0.0412,0.0361,0.0331,0.0198,0.0135,0.0025,-0.011,-0.0095,-0.0285,-0.0279,-0.0299,-0.0296,-0.0314,-0.0309,-0.0368,-0.0368,-0.0368,-0.0368,-0.0367,0,0.0434,0.0435,0.0463,0.0465,0.0469,0.047,0.0468,0.046,0.0429,0.0386,0.0341,0.0246,0.0117,-0.0016,-0.012,-0.0252,-0.0291,-0.0304,-0.0323,-0.0295,-0.0287,-0.032,-0.0314,-0.0371,-0.037,-0.0369,-0.0369,0,0.0416,0.0437,0.0441,0.0457,0.0473,0.0484,0.0512,0.0497,0.0492,0.0435,0.0426,0.0282,0.0126,-0.0002,-0.0198,-0.0252,-0.0383,-0.0408,-0.0361,-0.0375,-0.0341,-0.0332,-0.0425,-0.0425,-0.0424,-0.0424,-0.0424,0,0.0401,0.041,0.0447,0.0473,0.0492,0.0524,0.0539,0.0541,0.0518,0.0418,0.0365,0.0233,0.0128,-0.0115,-0.0251,-0.0396,-0.0405,-0.044,-0.039,-0.0342,-0.0352,-0.0343,-0.0334,-0.0424,-0.0424,-0.0424,-0.0424,0,0.0364,0.0391,0.04,0.0465,0.05,0.0519,0.0542,0.0522,0.0487,0.0478,0.032,0.0203,0.0034,-0.0139,-0.0225,-0.0351,-0.0409,-0.0437,-0.0437,-0.0391,-0.0342,-0.035,-0.0342,-0.0423,-0.0423,-0.0423,-0.0423,0,0.0338,0.0345,0.0383,0.044,0.0501,0.0512,0.0508,0.0472,0.0447,0.0362,0.0273,0.012,0.0022,-0.0122,-0.0257,-0.0319,-0.0316,-0.0314,-0.032,-0.0322,-0.0262,-0.0183,-0.0241,0,0,0,0,0,0.0312,0.033,0.0365,0.041,0.0479,0.0523,0.0508,0.0487,0.0441,0.0351,0.0333,0.0179,0.0008,-0.0115,-0.0166,-0.0246,-0.0331,-0.0308,-0.0331,-0.0419,-0.042,-0.0364,0,0,0,0,0,0,0.0288,0.0317,0.0341,0.0398,0.0459,0.0494,0.0504,0.045,0.0394,0.0347,0.0243,0.0215,0.0032,0.0073,-0.0144,-0.0174,-0.0188,-0.0386,-0.0386,-0.0418,-0.0419,-0.042,-0.0362,0,0,0,0,0]}]]